Location: Cronhütte
(48.9135°N, 9.6869°E)
Time: 02:47:46
(UTC+00:00)

COSMOS 2428 - Pass Details

Date: 23 May 2024
Orbit: 844 x 856 km, 70.9° (Epoch: 13 June)

Event Time Altitude Azimuth Distance (km) Brightness Sun altitude
Rises 01:57:04 0° 334° (NNW) 3,415 6.2 -11.9°
Reaches altitude 10° 01:59:42 10° 342° (NNW) 2,477 5.6 -11.7°
Maximum altitude 02:05:01 40° 51° (NE) 1,239 4.3 -11.1°
Drops below altitude 10° 02:10:19 10° 121° (ESE) 2,470 5.3 -10.6°
Sets 02:12:56 0° 128° (SE) 3,403 5.9 -10.3°
